Location: Ebersheim
(48.3033°N, 7.4991°E)
Time: 03:51:46
(UTC+00:00)

SPOT 3 Rocket - Pass Details

Date: 27 February 2020
Orbit: 779 x 795 km, 98.8° (Epoch: 30 March)

Event Time Altitude Azimuth Distance (km) Brightness Sun altitude
Exits shadow 19:13:10 34° 146° (SE) 1,273 4.2 -21.2°
Maximum altitude 19:15:24 70° 72° (ENE) 844 3.4 -21.5°
Drops below altitude 10° 19:20:37 10° 349° (N) 2,373 6.3 -22.4°
Sets 19:22:58 0° 348° (NNW) 3,309 7.1 -22.7°
